sat.trackr.live / text

‹ back to catalog

STARLINK-34805

NORAD 65071 · 2025-165R

PAYLOAD ACTIVE UNKNOWN

§ Identity

Operator
Country
US
Launch date
2025-07-31
Launch site
AFWTR
Launch vehicle
Mass (kg)
RCS (m²)

Purposes: comms

External: N2YO · Heavens-Above · Gunter

§ Orbital elements

Epoch: 2026-05-25T03:44:31.076736Z

Period
95.64 min
Inclination
97.4471°
Eccentricity
0.0002335
Mean motion
15.05665909 rev/d
Perigee alt
547.8 km
Apogee alt
551.1 km
Semi-major
6,927.6 km
B*
-1.2268e-5
RAAN
222.1911°
Arg perigee
149.0888°
Mean anomaly
211.0477°
Rev number
4,629

§ Raw data

STARLINK-348051 65071U 25165R   26145.15591524 -.00000236  00000+0 -12268-4 0  99932 65071  97.4471 222.1911 0002335 149.0888 211.0477 15.05665909 46291

JSON: /api/v1/satellites/65071 · /tle

For live sub-satellite position, see the globe view (requires WebGL).

§ Visibility from observer

Set your observer location to see the next 7 days of passes ≥ 10°. The values pass through the URL so the page stays shareable.

No JS? Fill the form by hand. The geolocation button needs JavaScript.